Погода в Аксе

Погода в Аксе : погода сейчас, прогноз погоды и архив. Всё, что Вы хотите узнать о погоде в Аксе!

Хотите узнать прогноз погоды в Аксе? Тогда Вам сюда: Погода в Аксе

Поиск расширенной информации на нашем сайте:

Другие новости

Новости СМИ2

Главная страница сайта

Новости сайта

03.07.2017

Напоминаем, что на нашем специализированном сайте Метеоцентр.Азия вы можете получить высокодетализированные автоматические прогнозы погоды по пунктам России, СНГ и мира в авиационном формате (включающие направление и скорость ветра, видимость, явления погоды, количество и форму облачности, нижнюю и верхнюю границу облачности).


Погода в Аксе - сегодня

Время (UTC), дата Ветер
(°,м/с) 
Видим.   Явления Облачность Т
(°С)
Тd
(°С)
f(%) Тe
(°С)
Pmin
(гПа)
dP
(гПа)
Po
(мм)
O2
(г/м3)
Тmin Tmax R s Состояние
почвы
18 16.09.17 180 (Ю) н/о    ясно 
+4 +2.6 91 +4  1014.8  -0.5  696  276           
21 16.09.17 200 (Ю) н/о    ясно 
+2.9 +1.8 92 +2  1015  -0.2  696  277           
03 17.09.17 210 (ЮЗ) 20000 м    ясно 
+15.8 +6.1 52 +16  1008.4  -1.8  694  263           
06 17.09.17 230 (ЮЗ) 20000 м    ясно 
+21.5 +3.9 31 +22  1003.4  -3.1  692  258           
09 17.09.17 220 (ЮЗ) 20000 м    ясно 
+22 +4.1 31 +22  1001.1  -1.9  691  257           
15 17.09.17 110 (В) н/о  зарница  4/4 1000 м кучево-дожд. 
[Cb cap]
+10.9 +6 72 +12  1002.9  -1.1  690  266           
18 17.09.17 070 (В) н/о    8/8 1000 м кучево-дожд. 
[Cb cap]
+10.5 +9.2 92 +14  1005.9  2.7  692  267           
21 17.09.17 200 (Ю) н/о  {ливн. осадки}  3/3 1000 м кучево-дожд. 
[Cb cap]
+9.2 +8.4 95 +10  1006  0.1  691  268           
00 18.09.17 310 (СЗ) 20000 м  {ливн. осадки}  8/3 1000 м средняя 
[Sc diur, vesp|Ac trans]
+9.9 +1.3 55 +9  1008.2  2.1  693  269  +8.7      влажная 
12 18.09.17 320 (СЗ) 7-11{14}  н/о    8/8 1000 м кучево-дожд. 
[Cb cap]
+9.5 +0.2 52 +8  1011.4  1.8  695  270    +11.6       
15 18.09.17 340 (С) 2{12}  н/о    ясно 
+7.5 -0.8 56 +7  1013.7  1.5  696  273           
18 18.09.17 200 (Ю) н/о    ясно 
+5.2 -0.9 65 +5  1015.7  1.1  697  276           
21 18.09.17 080 (В) н/о    ясно 
+1 -1.4 84 1018.3  1.1  698  280           
00 19.09.17 040 (СВ) 20000 м    3/0 верхняя 
[Ci fib]
+3.8 +0.1 77 +5  1017.8  0.4  698  277  -0.9        влажная 
03 19.09.17 200 (Ю) 20000 м    ясно 
+11.8 +0.3 45 +11  1014.2  -1  697  269           
06 19.09.17 200 (Ю) 20000 м    1/0 верхняя 
[Ci fib]
+17.4 -1.2 28 +18  1010.6  -1.7  696  264           
09 19.09.17 230 (ЮЗ) 20000 м    1/0 верхняя 
[Ci fib]
+19.8 +0.4 27 +21  1008.4  -1.4  695  261           
12 19.09.17 190 (Ю) н/о    ясно 
+8.2 +4.6 78 +9  1012  0.2  695  271    +20       
15 19.09.17 200 (Ю) н/о    ясно 
+4.4 +1.8 83 +5  1013.4  695  275           
18 19.09.17 120 (ЮВ) н/о    ясно 
+2.6 +1.1 90 +3  1012.8  -1.1  695  277           
21 19.09.17 090 (В) н/о    ясно 
+0.6 -0.2 94 1012.2  -1.2  694  279           
00 20.09.17 210 (ЮЗ) 20000 м    4/0 верхняя 
[Ci fib]
+4 +1.7 85 +5  1010.1  -0.8  693  275  -0.6        влажная 
03 20.09.17 190 (Ю) 20000 м    1/0 верхняя 
[Ci fib]
+16.3 +3.8 43 +17  1003.5  -2.6  691  262           
06 20.09.17 240 (ЮЗ) 8-12{12}  20000 м    4/0 верхняя 
[Ci fib]
+24 +0.3 21 +24  997.6  -3.4  689  255           
09 20.09.17 200 (Ю) 5{12}  20000 м    8/0 верхняя 
[Ci fib]
+23.9 -0.7 20 +24  996.1  -1.4  687  255           
Время (UTC), дата Ветер
(°,м/с) 
Видим.   Явления Облачность Т
(°С)
Тd
(°С)
f(%) Тe
(°С)
Pmin
(гПа)
dP
(гПа)
Po
(мм)
O2
(г/м3)
Тmin Tmax R s Состояние
почвы

Для получения пояснительной информации подведите курсор к названию столбца.

ПОГОДА в Аксе - архив

Всё, что Вы хотите узнать о погоде в Аксе - удобно и подробно!

Выберите нужную дату (начиная с 1 января 2015* года) и нажмите кнопку "Найти".
Будут отображены архивные сводки погоды по пункту Акса, начиная с указанной даты.


Отображать данные в формате CSV (для использования в таблицах Excel)


Внимание! Наш архив погоды предназначен исключительно для личного некоммерческого использования в познавательных целях. Если Вам необходимы официальные справки о состоянии погоды (для производственных, юридических, коммерческих и т.п. целей), обращайтесь в органы Росгидромета.

*Примечание: данная дата относится к архиву по метеостанциям СССР (Россия, СНГ, Балтия).
Архив по метеостанциям Зарубежной Европы и Азии (кроме Китая) хранится 10 дней, по другим регионам земного шара (Китай, Африка, Америка, Австралия, Океания) - 1 день.

Акса - район местоположения метеостанции


Название, широта, долгота, высота метеостанции:
Акса 50.3°ш. 113.3°д. 732 м над ур. моря [Российская Федерация]

Дополнительная информация

В oтличие oт бoльшинства пoгoдных сайтoв мы публикуем пoдрoбную метеoинфoрмацию в детальнoм прoфессиoнальнoм фoрмате.

Характеристики температуры и влажнoсти вoздуха измеряются на высoте 2 м в тени вдали oт зданий и деревьев.
Скoрoсть ветра измеряется на высoте 10 м (на урoвне рoста челoвека скoрoсть ветра ниже в 1.5-2 раза). Если метеoстанция нахoдится в гoрoде или в лесу, тo скoрoсть ветра занижена на 2-4 м/с пo сравнению с oткрытым местoм. Скoрoсть ветра над акватoриями крупных рек и oзёр, а также на вершинах хoлмoв на 2-5 м/с выше, чем в oбычных услoвиях.
Атмoсфернoе давление в разных тoчках местнoсти мoжет значительнo oтличаться oт давления на метеoстанции, в зависимoсти oт услoвий рельефа (при пoдъёме на 10 м давление пoнижается примернo на 1 мм рт.ст.).